QPF
0.00 0.00 0.00 0.00 0.00 0.00 0.00 0.00 0.00 0.00 0.00 0.00 0.00 0.00 0.00 0.00 0.00 0.00 0.00 0.00 0.00 0.00 0.00 0.00 0.00 0.01 0.01 0.01 0.01 0.03 0.04 0.04 0.08 0.11 0.12 0.13 0.15 0.14 0.14 0.13 0.12 0.13 0.15 0.16
0.00 0.00 0.00 0.00 0.00 0.00 0.00 0.00 0.00 0.00 0.00 0.00 0.00 0.00 0.00 0.00 0.00 0.00 0.00 0.00 0.00 0.00 0.00 0.00 0.01 0.01 0.01 0.01 0.02 0.03 0.04 0.05 0.07 0.10 0.12 0.12 0.11 0.11 0.10 0.09 0.08 0.08 0.09 0.09
0.00 0.00 0.00 0.00 0.00 0.00 0.00 0.00 0.00 0.00 0.00 0.00 0.00 0.00 0.00 0.00 0.00 0.00 0.00 0.00 0.00 0.00 0.00 0.00 0.00 0.01 0.02 0.02 0.03 0.04 0.05 0.06 0.08 0.09 0.11 0.12 0.09 0.07 0.06 0.05 0.05 0.05 0.05 0.05
0.00 0.00 0.00 0.00 0.00 0.00 0.00 0.00 0.00 0.00 0.00 0.00 0.00 0.00 0.00 0.00 0.00 0.00 0.00 0.00 0.00 0.00 0.00 0.00 0.00 0.01 0.02 0.04 0.05 0.05 0.07 0.09 0.11 0.10 0.10 0.10 0.07 0.06 0.06 0.06 0.05 0.05 0.05 0.03
0.00 0.00 0.00 0.00 0.00 0.00 0.00 0.00 0.00 0.00 0.00 0.00 0.00 0.00 0.00 0.00 0.00 0.00 0.00 0.00 0.00 0.00 0.00 0.00 0.00 0.00 0.01 0.03 0.04 0.05 0.08 0.10 0.11 0.11 0.10 0.09 0.08 0.08 0.08 0.07 0.06 0.05 0.06 0.04
0.00 0.00 0.01 0.00 0.00 0.00 0.00 0.00 0.00 0.00 0.00 0.00 0.00 0.00 0.00 0.00 0.00 0.00 0.00 0.00 0.00 0.00 0.00 0.00 0.00 0.00 0.00 0.01 0.04 0.06 0.07 0.08 0.08 0.10 0.11 0.11 0.11 0.10 0.09 0.07 0.06 0.05 0.06 0.04
0.00 0.01 0.00 0.00 0.00 0.00 0.01 0.02 0.00 0.00 0.00 0.00 0.01 0.01 0.00 0.00 0.00 0.00 0.00 0.00 0.00 0.00 0.00 0.00 0.00 0.00 0.01 0.01 0.03 0.04 0.05 0.06 0.08 0.09 0.11 0.12 0.13 0.12 0.09 0.06 0.06 0.06 0.05 0.05
0.00 0.01 0.01 0.00 0.00 0.01 0.02 0.01 0.00 0.00 0.00 0.01 0.01 0.00 0.00 0.00 0.00 0.00 0.00 0.00 0.00 0.01 0.00 0.01 0.01 0.01 0.01 0.01 0.02 0.02 0.04 0.06 0.07 0.09 0.07 0.07 0.09 0.10 0.10 0.09 0.07 0.06 0.05 0.04
0.00 0.01 0.01 0.00 0.00 0.01 0.01 0.01 0.01 0.01 0.01 0.01 0.01 0.01 0.01 0.01 0.01 0.01 0.01 0.01 0.02 0.02 0.02 0.02 0.02 0.01 0.01 0.01 0.01 0.02 0.05 0.08 0.09 0.09 0.10 0.11 0.10 0.08 0.08 0.07 0.07 0.06 0.04 0.03
0.01 0.00 0.00 0.00 0.00 0.00 0.00 0.00 0.01 0.01 0.01 0.01 0.01 0.02 0.02 0.02 0.01 0.02 0.02 0.02 0.02 0.02 0.03 0.04 0.04 0.03 0.02 0.01 0.01 0.03 0.05 0.08 0.10 0.11 0.11 0.12 0.12 0.10 0.08 0.08 0.07 0.07 0.06 0.04
0.02 0.02 0.01 0.01 0.01 0.00 0.00 0.00 0.00 0.00 0.01 0.01 0.02 0.02 0.02 0.02 0.02 0.03 0.03 0.03 0.03 0.05 0.06 0.07 0.09 0.08 0.04 0.02 0.02 0.03 0.05 0.07 0.08 0.09 0.11 0.12 0.12 0.11 0.10 0.11 0.08 0.08 0.07 0.05
0.03 0.02 0.02 0.02 0.01 0.00 0.00 0.00 0.01 0.01 0.01 0.01 0.01 0.02 0.02 0.02 0.02 0.03 0.04 0.06 0.08 0.09 0.11 0.11 0.10 0.10 0.07 0.03 0.02 0.03 0.04 0.06 0.07 0.08 0.09 0.09 0.10 0.06 0.04 0.05 0.02 0.01 0.02 0.02
0.01 0.01 0.01 0.00 0.00 0.00 0.00 0.00 0.00 0.00 0.01 0.01 0.01 0.02 0.02 0.02 0.03 0.03 0.04 0.05 0.07 0.08 0.10 0.11 0.11 0.10 0.08 0.05 0.03 0.02 0.03 0.04 0.07 0.08 0.08 0.07 0.08 0.07 0.02 0.00 0.00 0.00 0.00 0.00
0.00 0.00 0.00 0.00 0.00 0.00 0.00 0.00 0.00 0.00 0.00 0.01 0.01 0.02 0.02 0.03 0.03 0.04 0.04 0.05 0.06 0.08 0.11 0.13 0.14 0.13 0.13 0.12 0.08 0.03 0.03 0.03 0.04 0.06 0.08 0.07 0.06 0.07 0.05 0.01 0.00 0.00 0.00 0.00
0.00 0.00 0.00 0.00 0.00 0.00 0.00 0.00 0.00 0.00 0.00 0.00 0.01 0.01 0.02 0.03 0.03 0.04 0.04 0.05 0.06 0.07 0.09 0.13 0.17 0.15 0.13 0.15 0.14 0.07 0.03 0.02 0.02 0.03 0.04 0.03 0.03 0.04 0.03 0.01 0.01 0.00 0.00 0.00
0.00 0.00 0.00 0.00 0.00 0.00 0.00 0.00 0.00 0.00 0.00 0.00 0.00 0.01 0.02 0.02 0.03 0.03 0.04 0.05 0.07 0.08 0.09 0.12 0.14 0.15 0.18 0.19 0.18 0.13 0.06 0.02 0.02 0.03 0.02 0.02 0.01 0.01 0.01 0.01 0.01 0.01 0.00 0.00
0.00 0.00 0.00 0.00 0.00 0.00 0.00 0.00 0.00 0.00 0.00 0.00 0.00 0.01 0.01 0.02 0.03 0.04 0.05 0.06 0.08 0.08 0.09 0.11 0.14 0.17 0.20 0.23 0.21 0.16 0.10 0.03 0.01 0.01 0.01 0.01 0.01 0.01 0.00 0.00 0.00 0.00 0.00 0.00
0.00 0.00 0.00 0.00 0.00 0.00 0.00 0.00 0.00 0.00 0.00 0.01 0.01 0.01 0.02 0.03 0.04 0.05 0.06 0.07 0.08 0.09 0.10 0.12 0.15 0.18 0.20 0.21 0.23 0.20 0.14 0.07 0.02 0.00 0.00 0.00 0.00 0.00 0.00 0.00 0.00 0.00 0.00 0.00
0.00 0.00 0.00 0.00 0.00 0.00 0.00 0.00 0.01 0.01 0.01 0.01 0.02 0.02 0.03 0.04 0.05 0.06 0.07 0.08 0.09 0.10 0.12 0.15 0.17 0.19 0.20 0.20 0.22 0.21 0.16 0.10 0.06 0.02 0.00 0.00 0.00 0.00 0.00 0.00 0.00 0.00 0.00 0.00
0.00 0.00 0.00 0.00 0.00 0.00 0.00 0.01 0.01 0.02 0.02 0.03 0.04 0.05 0.05 0.06 0.07 0.08 0.09 0.10 0.10 0.12 0.13 0.16 0.17 0.17 0.18 0.21 0.24 0.21 0.15 0.11 0.08 0.04 0.01 0.00 0.00 0.00 0.00 0.00 0.00 0.00 0.00 0.00
0.00 0.00 0.00 0.00 0.00 0.00 0.01 0.02 0.03 0.03 0.04 0.06 0.08 0.09 0.08 0.08 0.08 0.10 0.11 0.10 0.10 0.13 0.13 0.13 0.13 0.14 0.16 0.21 0.25 0.22 0.16 0.12 0.08 0.05 0.03 0.01 0.00 0.00 0.00 0.00 0.00 0.00 0.00 0.00
0.00 0.00 0.00 0.00 0.01 0.01 0.01 0.03 0.05 0.06 0.07 0.08 0.09 0.09 0.09 0.09 0.08 0.09 0.10 0.10 0.09 0.10 0.13 0.14 0.14 0.15 0.14 0.16 0.19 0.20 0.17 0.13 0.09 0.05 0.03 0.01 0.00 0.00 0.00 0.00 0.00 0.00 0.00 0.00
0.00 0.00 0.00 0.01 0.01 0.02 0.02 0.04 0.05 0.07 0.09 0.11 0.12 0.12 0.13 0.13 0.12 0.12 0.09 0.09 0.09 0.08 0.09 0.12 0.15 0.16 0.14 0.11 0.11 0.13 0.14 0.12 0.09 0.05 0.03 0.01 0.00 0.00 0.00 0.00 0.00 0.00 0.00 0.00
0.00 0.00 0.00 0.01 0.02 0.03 0.04 0.05 0.05 0.07 0.09 0.11 0.11 0.13 0.16 0.15 0.13 0.11 0.09 0.08 0.07 0.05 0.05 0.07 0.09 0.10 0.10 0.08 0.08 0.09 0.10 0.09 0.06 0.05 0.03 0.01 0.00 0.00 0.00 0.00 0.00 0.00 0.00 0.00
0.00 0.00 0.00 0.01 0.03 0.04 0.05 0.06 0.08 0.09 0.11 0.12 0.12 0.12 0.15 0.15 0.14 0.11 0.09 0.07 0.07 0.05 0.05 0.05 0.05 0.06 0.06 0.05 0.05 0.06 0.06 0.06 0.05 0.04 0.03 0.02 0.01 0.00 0.00 0.00 0.00 0.00 0.00 0.00
0.00 0.00 0.01 0.02 0.03 0.04 0.05 0.08 0.12 0.15 0.18 0.20 0.18 0.16 0.17 0.16 0.13 0.12 0.11 0.08 0.06 0.05 0.06 0.07 0.06 0.05 0.04 0.04 0.04 0.04 0.03 0.04 0.04 0.03 0.02 0.01 0.01 0.01 0.01 0.01 0.00 0.00 0.00 0.00
0.00 0.00 0.01 0.01 0.02 0.03 0.04 0.10 0.14 0.18 0.23 0.29 0.30 0.24 0.21 0.19 0.16 0.14 0.12 0.10 0.07 0.05 0.05 0.06 0.07 0.06 0.05 0.04 0.04 0.03 0.03 0.02 0.02 0.01 0.01 0.01 0.01 0.01 0.01 0.00 0.00 0.00 0.00 0.00
MSLP
1011.78 1011.52 1011.21 1010.89 1010.61 1010.36 1010.15 1009.94 1009.72 1009.44 1009.10 1008.68 1008.20 1007.69 1007.19 1006.74 1006.38 1006.13 1006.01 1006.02 1006.15 1006.38 1006.68 1007.02 1007.38 1007.73 1008.07 1008.38 1008.65 1008.86 1009.03 1009.13 1009.17 1009.15 1009.08 1008.98 1008.87 1008.75 1008.65 1008.59 1008.57 1008.61 1008.69 1008.83
1011.80 1011.51 1011.14 1010.75 1010.38 1010.05 1009.76 1009.51 1009.28 1009.04 1008.77 1008.44 1008.06 1007.63 1007.19 1006.77 1006.39 1006.09 1005.90 1005.83 1005.87 1006.02 1006.25 1006.55 1006.89 1007.24 1007.59 1007.91 1008.19 1008.42 1008.59 1008.72 1008.78 1008.81 1008.81 1008.79 1008.76 1008.73 1008.73 1008.76 1008.82 1008.92 1009.05 1009.22
1011.74 1011.49 1011.16 1010.78 1010.41 1010.07 1009.78 1009.53 1009.32 1009.11 1008.88 1008.61 1008.27 1007.87 1007.43 1006.98 1006.54 1006.15 1005.85 1005.65 1005.57 1005.61 1005.76 1005.99 1006.29 1006.62 1006.97 1007.30 1007.59 1007.85 1008.05 1008.21 1008.33 1008.41 1008.48 1008.53 1008.59 1008.66 1008.75 1008.86 1008.99 1009.15 1009.32 1009.52
1011.66 1011.53 1011.30 1011.03 1010.74 1010.47 1010.23 1010.03 1009.85 1009.67 1009.46 1009.20 1008.85 1008.43 1007.94 1007.41 1006.86 1006.34 1005.89 1005.53 1005.31 1005.21 1005.24 1005.39 1005.62 1005.92 1006.25 1006.59 1006.90 1007.19 1007.44 1007.65 1007.82 1007.98 1008.12 1008.25 1008.39 1008.55 1008.71 1008.89 1009.09 1009.29 1009.50 1009.72
1011.66 1011.67 1011.61 1011.49 1011.35 1011.20 1011.05 1010.92 1010.78 1010.62 1010.41 1010.12 1009.73 1009.24 1008.66 1008.01 1007.33 1006.66 1006.04 1005.52 1005.12 1004.87 1004.77 1004.81 1004.96 1005.21 1005.51 1005.84 1006.18 1006.49 1006.79 1007.05 1007.29 1007.52 1007.73 1007.95 1008.17 1008.39 1008.62 1008.86 1009.11 1009.35 1009.59 1009.84
1011.79 1011.98 1012.10 1012.16 1012.17 1012.15 1012.11 1012.04 1011.93 1011.77 1011.53 1011.19 1010.73 1010.16 1009.47 1008.70 1007.88 1007.06 1006.29 1005.60 1005.05 1004.65 1004.41 1004.33 1004.38 1004.56 1004.81 1005.12 1005.46 1005.80 1006.13 1006.44 1006.75 1007.04 1007.32 1007.61 1007.90 1008.19 1008.48 1008.77 1009.05 1009.33 1009.61 1009.87
1012.14 1012.47 1012.75 1012.96 1013.10 1013.18 1013.21 1013.17 1013.07 1012.89 1012.60 1012.19 1011.66 1011.00 1010.22 1009.35 1008.42 1007.48 1006.58 1005.77 1005.08 1004.55 1004.18 1003.98 1003.94 1004.02 1004.21 1004.48 1004.80 1005.14 1005.49 1005.84 1006.19 1006.54 1006.89 1007.24 1007.58 1007.93 1008.27 1008.61 1008.93 1009.25 1009.55 1009.85
1012.71 1013.14 1013.52 1013.81 1014.02 1014.15 1014.18 1014.13 1013.99 1013.75 1013.39 1012.92 1012.31 1011.58 1010.74 1009.82 1008.83 1007.84 1006.87 1005.98 1005.20 1004.57 1004.10 1003.80 1003.65 1003.64 1003.75 1003.95 1004.23 1004.54 1004.89 1005.26 1005.64 1006.03 1006.42 1006.82 1007.22 1007.62 1008.01 1008.39 1008.76 1009.11 1009.45 1009.78
1013.47 1013.94 1014.33 1014.62 1014.81 1014.89 1014.87 1014.74 1014.51 1014.18 1013.74 1013.20 1012.54 1011.78 1010.93 1010.00 1009.03 1008.04 1007.07 1006.17 1005.36 1004.68 1004.15 1003.76 1003.52 1003.41 1003.43 1003.56 1003.77 1004.04 1004.36 1004.72 1005.10 1005.51 1005.94 1006.38 1006.83 1007.27 1007.71 1008.14 1008.55 1008.95 1009.33 1009.69
1014.36 1014.77 1015.09 1015.29 1015.36 1015.32 1015.16 1014.90 1014.54 1014.10 1013.58 1012.97 1012.29 1011.54 1010.73 1009.86 1008.95 1008.04 1007.14 1006.29 1005.51 1004.83 1004.26 1003.82 1003.51 1003.32 1003.25 1003.28 1003.41 1003.61 1003.89 1004.21 1004.59 1005.00 1005.45 1005.92 1006.40 1006.89 1007.38 1007.86 1008.32 1008.77 1009.19 1009.59
1015.26 1015.54 1015.71 1015.74 1015.63 1015.39 1015.04 1014.61 1014.10 1013.53 1012.92 1012.28 1011.60 1010.89 1010.15 1009.39 1008.61 1007.82 1007.04 1006.29 1005.58 1004.94 1004.38 1003.92 1003.56 1003.30 1003.14 1003.09 1003.13 1003.26 1003.46 1003.75 1004.09 1004.50 1004.95 1005.44 1005.96 1006.49 1007.02 1007.56 1008.07 1008.57 1009.04 1009.48
1016.05 1016.16 1016.11 1015.92 1015.58 1015.11 1014.56 1013.93 1013.27 1012.59 1011.92 1011.25 1010.60 1009.96 1009.32 1008.69 1008.06 1007.42 1006.78 1006.15 1005.55 1004.98 1004.45 1003.98 1003.59 1003.27 1003.04 1002.91 1002.87 1002.91 1003.06 1003.28 1003.59 1003.97 1004.42 1004.93 1005.47 1006.04 1006.62 1007.21 1007.78 1008.33 1008.85 1009.34
1016.63 1016.54 1016.26 1015.83 1015.25 1014.57 1013.82 1013.03 1012.24 1011.48 1010.76 1010.09 1009.48 1008.92 1008.39 1007.89 1007.40 1006.90 1006.40 1005.90 1005.39 1004.88 1004.39 1003.94 1003.52 1003.16 1002.88 1002.67 1002.55 1002.53 1002.60 1002.77 1003.04 1003.40 1003.83 1004.34 1004.91 1005.51 1006.14 1006.78 1007.41 1008.02 1008.59 1009.12
1016.95 1016.64 1016.15 1015.50 1014.72 1013.86 1012.95 1012.05 1011.18 1010.37 1009.64 1009.00 1008.44 1007.95 1007.52 1007.12 1006.73 1006.35 1005.95 1005.53 1005.09 1004.63 1004.18 1003.72 1003.30 1002.91 1002.57 1002.31 1002.13 1002.04 1002.06 1002.17 1002.40 1002.72 1003.14 1003.65 1004.22 1004.86 1005.53 1006.22 1006.90 1007.57 1008.20 1008.78
1016.97 1016.47 1015.79 1014.97 1014.05 1013.08 1012.09 1011.14 1010.25 1009.44 1008.73 1008.13 1007.62 1007.19 1006.81 1006.47 1006.14 1005.81 1005.46 1005.08 1004.67 1004.23 1003.78 1003.32 1002.88 1002.46 1002.09 1001.79 1001.56 1001.42 1001.38 1001.45 1001.63 1001.91 1002.31 1002.81 1003.39 1004.04 1004.74 1005.48 1006.22 1006.94 1007.63 1008.27
1016.71 1016.05 1015.24 1014.31 1013.32 1012.31 1011.32 1010.38 1009.53 1008.77 1008.12 1007.56 1007.09 1006.69 1006.34 1006.01 1005.68 1005.33 1004.97 1004.57 1004.14 1003.68 1003.22 1002.74 1002.28 1001.84 1001.44 1001.11 1000.84 1000.66 1000.58 1000.60 1000.74 1000.99 1001.35 1001.83 1002.40 1003.06 1003.78 1004.55 1005.34 1006.12 1006.87 1007.56
1016.19 1015.42 1014.53 1013.56 1012.57 1011.59 1010.66 1009.81 1009.04 1008.37 1007.79 1007.28 1006.85 1006.45 1006.07 1005.70 1005.32 1004.91 1004.48 1004.02 1003.53 1003.03 1002.52 1002.02 1001.54 1001.08 1000.67 1000.32 1000.03 999.82 999.71 999.69 999.78 999.99 1000.31 1000.76 1001.31 1001.95 1002.68 1003.47 1004.29 1005.11 1005.92 1006.67
1015.47 1014.62 1013.71 1012.76 1011.83 1010.94 1010.12 1009.39 1008.74 1008.17 1007.67 1007.22 1006.79 1006.37 1005.94 1005.50 1005.02 1004.52 1003.99 1003.44 1002.87 1002.31 1001.76 1001.23 1000.73 1000.27 999.86 999.50 999.21 998.99 998.84 998.80 998.84 999.00 999.28 999.68 1000.19 1000.81 1001.52 1002.31 1003.14 1003.99 1004.83 1005.63
1014.61 1013.72 1012.82 1011.93 1011.09 1010.33 1009.65 1009.06 1008.54 1008.07 1007.64 1007.23 1006.80 1006.34 1005.84 1005.31 1004.72 1004.11 1003.47 1002.83 1002.19 1001.58 1000.99 1000.45 999.95 999.50 999.11 998.77 998.48 998.26 998.10 998.02 998.04 998.15 998.37 998.71 999.17 999.75 1000.42 1001.18 1002.00 1002.85 1003.70 1004.52
1013.66 1012.77 1011.91 1011.10 1010.37 1009.74 1009.19 1008.73 1008.32 1007.95 1007.58 1007.18 1006.73 1006.23 1005.66 1005.03 1004.35 1003.63 1002.91 1002.19 1001.50 1000.86 1000.27 999.74 999.26 998.85 998.49 998.18 997.92 997.71 997.55 997.45 997.43 997.50 997.67 997.95 998.35 998.86 999.48 1000.19 1000.96 1001.78 1002.60 1003.41
1012.69 1011.82 1011.01 1010.29 1009.66 1009.15 1008.72 1008.36 1008.04 1007.72 1007.37 1006.97 1006.50 1005.94 1005.30 1004.60 1003.84 1003.06 1002.27 1001.52 1000.82 1000.17 999.61 999.11 998.69 998.33 998.02 997.76 997.54 997.35 997.20 997.10 997.06 997.09 997.21 997.44 997.77 998.21 998.76 999.39 1000.10 1000.86 1001.63 1002.39
1011.76 1010.93 1010.18 1009.53 1009.00 1008.56 1008.21 1007.92 1007.64 1007.34 1006.99 1006.57 1006.05 1005.44 1004.74 1003.98 1003.17 1002.35 1001.55 1000.80 1000.11 999.51 998.99 998.56 998.21 997.92 997.68 997.48 997.30 997.15 997.02 996.93 996.88 996.88 996.97 997.14 997.41 997.79 998.26 998.81 999.44 1000.11 1000.80 1001.48
1010.94 1010.15 1009.46 1008.88 1008.41 1008.03 1007.71 1007.43 1007.14 1006.83 1006.44 1005.97 1005.39 1004.73 1003.98 1003.17 1002.34 1001.52 1000.73 1000.00 999.36 998.82 998.37 998.02 997.74 997.53 997.36 997.22 997.10 996.99 996.89 996.81 996.77 996.77 996.83 996.97 997.20 997.52 997.92 998.40 998.93 999.51 1000.10 1000.69
1010.28 1009.56 1008.92 1008.39 1007.95 1007.58 1007.25 1006.94 1006.61 1006.23 1005.77 1005.22 1004.57 1003.84 1003.05 1002.21 1001.37 1000.56 999.79 999.12 998.53 998.06 997.69 997.41 997.21 997.06 996.96 996.88 996.81 996.74 996.68 996.63 996.60 996.61 996.68 996.81 997.01 997.29 997.64 998.05 998.51 999.00 999.50 999.99
1009.85 1009.18 1008.60 1008.09 1007.65 1007.26 1006.89 1006.51 1006.09 1005.61 1005.04 1004.39 1003.66 1002.86 1002.01 1001.14 1000.29 999.49 998.76 998.12 997.60 997.19 996.88 996.66 996.52 996.44 996.38 996.35 996.32 996.29 996.27 996.25 996.26 996.29 996.38 996.52 996.72 996.99 997.31 997.68 998.08 998.50 998.93 999.34
1009.64 1009.04 1008.50 1008.00 1007.55 1007.10 1006.65 1006.17 1005.63 1005.02 1004.33 1003.56 1002.72 1001.83 1000.92 1000.02 999.15 998.35 997.64 997.04 996.56 996.19 995.93 995.76 995.66 995.61 995.59 995.59 995.59 995.60 995.61 995.64 995.68 995.76 995.87 996.04 996.27 996.54 996.86 997.22 997.60 997.98 998.36 998.72
1009.66 1009.12 1008.60 1008.10 1007.61 1007.09 1006.54 1005.94 1005.26 1004.50 1003.67 1002.77 1001.81 1000.83 999.84 998.89 998.00 997.19 996.49 995.91 995.45 995.11 994.88 994.73 994.65 994.62 994.63 994.65 994.68 994.72 994.76 994.83 994.91 995.03 995.20 995.41 995.67 995.97 996.31 996.68 997.05 997.43 997.80 998.15
Thickness
5739 5745 5748 5747 5749 5751 5745 5740 5728 5730 5732 5738 5740 5739 5738 5736 5732 5727 5723 5719 5713 5707 5702 5696 5691 5686 5681 5676 5672 5668 5663 5659 5655 5651 5646 5642 5637 5634 5631 5629 5628 5626 5625 5626
5732 5742 5746 5745 5751 5751 5747 5743 5735 5730 5726 5737 5737 5734 5729 5726 5722 5717 5714 5712 5709 5704 5697 5691 5686 5681 5676 5671 5666 5662 5657 5653 5650 5645 5641 5635 5631 5627 5624 5623 5621 5620 5618 5618
5721 5735 5735 5729 5745 5744 5739 5737 5725 5711 5713 5722 5718 5714 5713 5713 5712 5710 5709 5706 5702 5698 5692 5687 5682 5677 5671 5666 5662 5657 5653 5650 5646 5642 5637 5631 5627 5623 5620 5618 5616 5614 5613 5612
5717 5718 5704 5734 5753 5746 5734 5722 5714 5708 5707 5705 5702 5704 5708 5708 5703 5700 5700 5699 5696 5693 5688 5684 5679 5674 5668 5663 5658 5653 5649 5646 5643 5639 5634 5629 5624 5620 5617 5615 5613 5611 5609 5607
5711 5708 5717 5733 5729 5725 5715 5703 5694 5692 5690 5692 5693 5694 5697 5699 5694 5691 5690 5690 5690 5689 5685 5680 5674 5669 5663 5658 5654 5650 5646 5643 5641 5637 5633 5627 5622 5618 5615 5612 5610 5608 5606 5604
5706 5693 5688 5697 5715 5722 5711 5691 5679 5678 5674 5674 5674 5663 5670 5681 5682 5682 5683 5684 5684 5684 5680 5675 5670 5665 5657 5652 5649 5646 5645 5643 5640 5636 5631 5626 5621 5617 5614 5610 5608 5605 5603 5601
5696 5689 5696 5688 5700 5702 5672 5654 5664 5665 5661 5657 5651 5649 5657 5665 5668 5671 5673 5675 5677 5676 5672 5669 5666 5659 5652 5648 5645 5645 5644 5641 5638 5634 5629 5625 5620 5616 5612 5609 5606 5603 5601 5599
5698 5683 5674 5676 5677 5656 5643 5649 5648 5646 5644 5641 5641 5643 5646 5648 5649 5653 5657 5661 5664 5662 5663 5664 5661 5654 5648 5644 5643 5642 5641 5638 5634 5631 5628 5625 5618 5614 5611 5607 5603 5600 5597 5595
5693 5672 5660 5658 5649 5641 5638 5633 5632 5630 5628 5627 5625 5625 5627 5629 5631 5634 5636 5640 5644 5648 5651 5654 5654 5650 5645 5643 5640 5637 5635 5633 5631 5628 5625 5623 5617 5612 5608 5605 5602 5599 5596 5594
5680 5658 5652 5643 5636 5630 5625 5620 5618 5615 5613 5611 5609 5609 5610 5612 5614 5616 5618 5621 5625 5630 5635 5639 5642 5644 5642 5640 5637 5632 5630 5628 5626 5624 5622 5619 5615 5612 5608 5605 5602 5599 5597 5595
5659 5639 5637 5632 5621 5615 5611 5608 5605 5603 5601 5598 5596 5595 5595 5596 5598 5599 5601 5604 5607 5611 5616 5623 5629 5634 5637 5637 5633 5628 5625 5624 5623 5621 5619 5616 5613 5610 5608 5607 5606 5602 5599 5598
5621 5612 5607 5605 5603 5599 5594 5592 5590 5588 5587 5586 5582 5580 5580 5580 5581 5583 5585 5589 5592 5596 5600 5607 5615 5621 5629 5631 5629 5625 5621 5620 5619 5618 5617 5614 5610 5605 5600 5602 5600 5600 5600 5599
5603 5599 5593 5590 5588 5586 5582 5580 5578 5574 5571 5569 5568 5565 5563 5563 5565 5567 5569 5573 5577 5582 5586 5591 5599 5609 5617 5622 5623 5621 5619 5617 5617 5616 5615 5612 5609 5605 5599 5593 5591 5594 5595 5595
5594 5588 5583 5580 5579 5576 5573 5570 5567 5563 5559 5555 5551 5548 5545 5545 5546 5548 5552 5557 5563 5568 5574 5579 5586 5595 5602 5608 5613 5616 5616 5615 5614 5614 5613 5611 5609 5606 5603 5599 5593 5590 5586 5586
5586 5580 5575 5572 5569 5565 5561 5557 5552 5549 5545 5542 5538 5533 5529 5527 5527 5530 5535 5541 5547 5553 5560 5566 5574 5582 5589 5595 5601 5608 5612 5612 5612 5613 5612 5610 5609 5607 5605 5602 5599 5594 5587 5577
5576 5571 5566 5561 5556 5552 5547 5542 5537 5534 5530 5527 5523 5519 5517 5515 5516 5518 5521 5526 5531 5538 5546 5553 5561 5571 5579 5585 5592 5599 5605 5609 5610 5610 5610 5609 5608 5606 5605 5603 5601 5598 5592 5584
5563 5558 5553 5547 5542 5538 5533 5528 5524 5521 5518 5515 5512 5509 5508 5507 5508 5509 5512 5515 5520 5527 5536 5543 5552 5561 5569 5575 5582 5590 5598 5604 5604 5607 5608 5608 5607 5606 5605 5603 5601 5599 5596 5591
5554 5547 5540 5533 5528 5524 5521 5517 5514 5510 5507 5505 5504 5502 5500 5499 5499 5501 5504 5507 5513 5520 5528 5536 5544 5552 5559 5566 5573 5582 5591 5600 5603 5604 5606 5606 5606 5606 5605 5603 5601 5599 5597 5592
5544 5537 5530 5524 5518 5513 5510 5506 5504 5502 5499 5497 5495 5494 5493 5492 5493 5495 5498 5501 5505 5512 5522 5529 5535 5543 5551 5559 5566 5575 5587 5594 5600 5602 5604 5604 5603 5604 5603 5602 5601 5599 5597 5592
5533 5526 5520 5515 5511 5506 5503 5500 5498 5496 5493 5491 5489 5488 5488 5488 5488 5490 5493 5496 5501 5507 5515 5521 5528 5537 5545 5553 5560 5570 5581 5590 5597 5601 5601 5603 5603 5602 5601 5601 5600 5599 5597 5593
5522 5516 5511 5508 5505 5503 5500 5497 5494 5492 5490 5487 5485 5484 5485 5485 5485 5486 5488 5493 5500 5504 5509 5515 5523 5531 5539 5546 5554 5565 5575 5585 5593 5599 5601 5601 5602 5601 5601 5600 5600 5599 5596 5594
5513 5509 5505 5503 5500 5499 5498 5496 5493 5491 5488 5485 5483 5482 5481 5481 5482 5483 5485 5488 5494 5497 5503 5511 5519 5526 5533 5539 5550 5560 5570 5579 5588 5596 5600 5601 5601 5601 5600 5600 5600 5599 5597 5595
5506 5503 5501 5499 5497 5497 5496 5495 5492 5488 5485 5482 5479 5478 5477 5477 5476 5478 5483 5488 5490 5494 5498 5506 5514 5520 5526 5535 5546 5556 5565 5575 5583 5592 5598 5601 5602 5602 5601 5600 5600 5599 5597 5595
5503 5501 5498 5497 5496 5495 5494 5493 5489 5485 5482 5479 5478 5476 5475 5476 5478 5479 5481 5484 5486 5489 5497 5504 5509 5516 5522 5535 5546 5555 5563 5572 5580 5588 5595 5599 5601 5603 5602 5601 5600 5599 5598 5596
5501 5498 5497 5494 5492 5492 5491 5489 5486 5483 5481 5480 5479 5478 5477 5476 5477 5480 5482 5485 5488 5490 5498 5506 5510 5516 5525 5537 5547 5555 5563 5572 5580 5586 5591 5595 5599 5601 5601 5601 5601 5600 5598 5596
5497 5495 5493 5490 5488 5487 5486 5483 5481 5480 5479 5479 5480 5480 5480 5480 5482 5484 5486 5489 5493 5496 5501 5509 5517 5521 5532 5541 5549 5557 5565 5572 5578 5584 5590 5593 5596 5599 5600 5600 5601 5600 5599 5597
5495 5492 5489 5488 5487 5486 5483 5480 5479 5479 5478 5479 5480 5482 5484 5485 5487 5490 5492 5495 5499 5503 5509 5516 5524 5531 5538 5546 5553 5560 5567 5574 5580 5585 5590 5593 5595 5597 5599 5599 5599 5598 5598 5596